TimeCDT,TemperatureF,Dew PointF,Humidity,Sea Level PressureIn,VisibilityMPH,Wind Direction,Wind SpeedMPH,Gust SpeedMPH,PrecipitationIn,Events,Conditions,WindDirDegrees,DateUTC
12:54 AM,-9999,-9999,N/A,30.08,10.0,Calm,Calm,-,N/A,,Clear,0,2012-09-29 05:54:00
1:54 AM,-9999,-9999,N/A,30.08,10.0,Calm,Calm,-,N/A,,Clear,0,2012-09-29 06:54:00
2:54 AM,-9999,-9999,N/A,30.07,10.0,Calm,Calm,-,N/A,,Clear,0,2012-09-29 07:54:00
3:54 AM,-9999,-9999,N/A,30.07,10.0,Calm,Calm,-,N/A,,Clear,0,2012-09-29 08:54:00
4:54 AM,-9999,-9999,N/A,30.07,10.0,Calm,Calm,-,N/A,,Clear,0,2012-09-29 09:54:00
5:54 AM,50.0,48.0,93,30.08,10.0,Calm,Calm,-,N/A,,Clear,0,2012-09-29 10:54:00
6:54 AM,51.8,48.0,87,30.09,8.0,Calm,Calm,-,N/A,,Clear,0,2012-09-29 11:54:00
7:54 AM,51.8,48.0,87,30.09,9.0,Calm,Calm,-,N/A,,Clear,0,2012-09-29 12:54:00
8:54 AM,55.4,51.1,85,30.09,9.0,Variable,3.5,-,N/A,,Clear,0,2012-09-29 13:54:00
9:54 AM,60.8,52.0,73,30.09,10.0,North,6.9,-,N/A,,Clear,350,2012-09-29 14:54:00
10:54 AM,-9999,-9999,N/A,30.09,10.0,North,8.1,-,N/A,,Clear,10,2012-09-29 15:54:00
11:54 AM,-9999,-9999,N/A,30.08,10.0,North,10.4,-,N/A,,Clear,350,2012-09-29 16:54:00
12:54 PM,72.0,55.0,55,30.06,10.0,North,10.4,-,N/A,,Clear,350,2012-09-29 17:54:00
1:54 PM,73.9,55.0,52,30.03,10.0,Variable,5.8,-,N/A,,Clear,0,2012-09-29 18:54:00
2:54 PM,73.9,52.0,46,30.02,10.0,NE,6.9,-,N/A,,Clear,40,2012-09-29 19:54:00
3:54 PM,73.9,52.0,46,30.00,10.0,North,6.9,-,N/A,,Clear,10,2012-09-29 20:54:00
4:54 PM,73.9,54.0,50,29.99,10.0,North,4.6,-,N/A,,Clear,10,2012-09-29 21:54:00
5:54 PM,71.1,53.1,53,29.99,10.0,Calm,Calm,-,N/A,,Clear,0,2012-09-29 22:54:00
6:54 PM,64.9,54.0,68,29.99,10.0,Calm,Calm,-,N/A,,Clear,0,2012-09-29 23:54:00
7:54 PM,61.0,55.9,83,30.00,10.0,Calm,Calm,-,N/A,,Clear,0,2012-09-30 00:54:00
8:54 PM,60.1,55.0,83,30.00,9.0,Calm,Calm,-,N/A,,Clear,0,2012-09-30 01:54:00
9:54 PM,57.9,55.0,90,30.00,6.0,Calm,Calm,-,N/A,,Clear,0,2012-09-30 02:54:00
10:54 PM,57.9,55.0,90,30.00,6.0,Calm,Calm,-,N/A,,Clear,0,2012-09-30 03:54:00
11:54 PM,55.0,53.1,93,29.99,5.0,Calm,Calm,-,N/A,,Clear,0,2012-09-30 04:54:00